Regional Weather Roundup
Issued by NWS

Home | Current Version | Previous Version | Text Only | Print | Product List | Glossary On
Versions: 1 2 3 4 5 6 7 8 9 10 11 12 13 14 15 16 17 18 19 20 21 22 23 24 25 26 27 28 29 30 31 32 33 34 35 36 37 38 39 40 41 42 43 44 45 46 47 48 49 50
000
ASUS45 KBOU 221107
RWRCO

WEATHER ROUNDUP FOR COLORADO
NATIONAL WEATHER SERVICE DENVER/BOULDER CO
500 AM MDT FRI AUG 22 2014

NOTE: "FAIR" INDICATES FEW OR NO CLOUDS BELOW 12000 FEET WITH NO
SIGNIFICANT WEATHER AND/OR OBSTRUCTIONS TO VISIBILITY.

COZ001>005-013-030-031-221200-
...NORTHWEST COLORADO...

CITY           SKY/WX    TMP DP  RH WIND       PRES   REMARKS
CRAIG          CLOUDY    54  49  83 NW5       30.20F
HAYDEN         CLOUDY    52  46  82 S3        30.22R
MEEKER         CLOUDY    54  47  77 CALM      30.21S
MOUNT WERNER   NOT AVBL
STEAMBOAT SPGS CLOUDY    51  47  87 CALM      30.24R
WALDEN         MOCLDY    46  43  87 SE5       30.31S
$$

COZ006>008-011-221200-
...WEST CENTRAL VALLEYS...

CITY           SKY/WX    TMP DP  RH WIND       PRES   REMARKS
GRAND JUNCTION CLOUDY    64  47  53 SE13      30.09R
MONTROSE       LGT RAIN  60  54  80 SE3       30.24R
EAGLE          CLOUDY    57  48  72 SE5       30.26R
RIFLE          LGT RAIN  60  51  72 S6        30.18R
DELTA          RAIN      63  55  77 NE5       30.20R
NUCLA          CLOUDY    57  52  82 E14       30.25S
$$

COZ017>023-064>068-221200-
...SOUTHWEST COLORADO...

CITY           SKY/WX    TMP DP  RH WIND       PRES   REMARKS
DURANGO        CLOUDY    61  46  57 NW14      30.23S
CORTEZ         CLOUDY    57  54  89 NE6       30.20F
PAGOSA SPRINGS CLOUDY    57  39  51 CALM      30.29R
TELLURIDE      NOT AVBL
WOLF CREEK PAS NOT AVBL
$$

COZ009-010-012-014-032>034-037-058>063-221200-
...CENTRAL COLORADO...

CITY           SKY/WX    TMP DP  RH WIND       PRES   REMARKS
ASPEN          LGT RAIN  53  48  83 CALM      30.32R
BUENA VISTA    CLOUDY    58  40  50 NW6       30.29S
COPPER MTN     CLOUDY    45  36  70 W16       30.55S
BERTHOUD PASS  DRIZZLE   39  37  93 W3        30.60S
COTTONWOOD PAS CLOUDY    55  36  47 W8        30.41S
GUNNISON       CLOUDY    54  43  66 W3        30.33R
KREMMLING      CLOUDY    54  46  76 CALM      30.30R
LEADVILLE      CLOUDY    48  39  71 NE5       30.41R
MONARCH PASS   DRIZZLE   41  34  75 SW12      30.65R
SALIDA         CLOUDY    60  42  49 W5        30.34S
SUNLIGHT       LGT RAIN  46  43  87 CALM      30.49S
WILKERSON PASS NOT AVBL
$$

COZ069>075-221200-
...SAN LUIS VALLEY/SANGRE DE CRISTO MOUNTAINS...

CITY           SKY/WX    TMP DP  RH WIND       PRES   REMARKS
ALAMOSA        CLOUDY    54  41  61 CALM      30.25R
LA VETA PASS   NOT AVBL
SAGUACHE       CLOUDY    59  37  44 NW13      30.29R
$$

COZ035-036-038>040-221200-
...NORTHERN COLORADO FRONT RANGE...

CITY           SKY/WX    TMP DP  RH WIND       PRES   REMARKS
DENVER INTL AP MOCLDY    61  57  87 SE5       30.16R
DMNS CITY PARK   N/A     63  56  79 S1        30.15S
AURORA         CLOUDY    61  57  89 CALM      30.18R
FRONT RANGE AP NOT AVBL
ERIE MUNI ARPT LGT RAIN  62  60  93 CALM      30.15R
BOULDER MUN AP RAIN      63  54  72 CALM      30.15S
CENTENNIAL     CLOUDY    60  55  83 S3        30.18R
BROOMFIELD     MOCLDY    63  55  77 CALM      30.18R
FORT COLLINS   CLOUDY    64  57  77 SE7       30.16R
LONGMONT       RAIN      64  58  78 CALM      30.16R
$$

COZ041-046-047-076>085-087-088-221200-
...PIKES PEAK/PALMER DIVIDE AND SOUTHERN FOOTHILLS...

CITY           SKY/WX    TMP DP  RH WIND       PRES   REMARKS
COLO. SPRINGS  CLOUDY    63  49  60 NW12      30.19R
A. F. ACADEMY  MOCLDY    57  49  75 N8        30.22R
ELLICOTT       CLOUDY    60  53  77 NE15      30.16S
FALCON         CLOUDY    57  51  80 N8        30.23R
FORT CARSON    NOT AVBL
LIMON          MOCLDY    59  56  89 N9        30.14S
MONUMENT HILL  MOCLDY    52  50  93 W3        30.24R
TRINIDAD       CLOUDY    64  50  60 NW12      30.12R
$$

COZ042>045-048>051-090-091-221200-
...NORTHEAST COLORADO...

CITY           SKY/WX    TMP DP  RH WIND       PRES   REMARKS
GREELEY ARPT   CLOUDY    63  54  72 S9        30.15R
AKRON          LGT RAIN  61  59  93 N8        30.13R
BURLINGTON     MOCLDY    68  54  60 NW17      30.06R
WRAY             N/A     68  57  67 NW7       30.06R
STERLING       RAIN      64  64 100 SW5       30.15R
HOLYOKE        NOT AVBL
FORT MORGAN    CLOUDY    62  58  89 NE7       30.12F
$$

COZ086-089-092>099-221200-
...SOUTHEAST COLORADO...

CITY           SKY/WX    TMP DP  RH WIND       PRES   REMARKS
PUEBLO         MOCLDY    69  53  56 N21G29    30.06R
LA JUNTA       MOCLDY    68  55  63 N8        29.99S
LAMAR          CLEAR     66  59  78 CALM      29.94S
SPRINGFIELD      N/A     62  54  74 SW8       30.01S
$$



USA.gov is the U.S. government's official web portal to all federal, state and local government web resources and services.